Time,TemperatureF,DewpointF,PressureIn,WindDirection,WindDirectionDegrees,WindSpeedMPH,WindSpeedGustMPH,Humidity,HourlyPrecipIn,Conditions,Clouds,dailyrainin,SoftwareType,DateUTC
2013-06-01 00:00:00,71.7,66.6,29.83,SSE,148,6.0,12.0,84,0.00,,---,0.00,VWS V14.00,2013-06-01 04:00:00,
2013-06-01 00:05:00,71.6,66.9,29.84,SSE,155,6.0,12.0,85,0.00,,---,0.00,VWS V14.00,2013-06-01 04:05:00,
2013-06-01 00:10:00,71.4,66.7,29.84,SSE,159,6.0,13.0,85,0.00,,---,0.00,VWS V14.00,2013-06-01 04:10:00,
2013-06-01 00:15:00,71.3,66.6,29.84,SSE,153,6.0,13.0,85,0.00,,---,0.00,VWS V14.00,2013-06-01 04:15:00,
2013-06-01 00:20:00,71.3,66.6,29.84,SE,137,6.0,13.0,85,0.00,,---,0.00,VWS V14.00,2013-06-01 04:20:00,
2013-06-01 00:25:00,71.2,66.8,29.83,SE,135,4.0,13.0,86,0.00,,---,0.00,VWS V14.00,2013-06-01 04:25:00,
2013-06-01 00:30:00,71.1,66.7,29.83,SSW,194,1.0,7.0,86,0.00,,---,0.00,VWS V14.00,2013-06-01 04:30:00,
2013-06-01 00:35:00,71.1,66.7,29.83,SSE,156,0.0,9.0,86,0.00,,---,0.00,VWS V14.00,2013-06-01 04:35:00,
2013-06-01 00:40:00,71.0,66.6,29.83,SSW,199,3.0,10.0,86,0.00,,---,0.00,VWS V14.00,2013-06-01 04:40:00,
2013-06-01 00:45:00,70.9,66.8,29.82,SSE,165,6.0,10.0,87,0.00,,---,0.00,VWS V14.00,2013-06-01 04:45:00,
2013-06-01 00:50:00,70.8,66.7,29.82,SSE,167,2.0,10.0,87,0.00,,---,0.00,VWS V14.00,2013-06-01 04:50:00,
2013-06-01 00:55:00,70.7,66.7,29.82,SSE,148,0.0,10.0,87,0.00,,---,0.00,VWS V14.00,2013-06-01 04:55:00,
2013-06-01 01:00:00,70.6,66.6,29.82,SSE,149,4.0,9.0,87,0.00,,---,0.00,VWS V14.00,2013-06-01 05:00:00,
2013-06-01 01:05:00,70.6,66.6,29.81,SE,142,2.0,9.0,87,0.00,,---,0.00,VWS V14.00,2013-06-01 05:05:00,
2013-06-01 01:10:00,70.5,66.4,29.81,South,178,7.0,9.0,87,0.00,,---,0.00,VWS V14.00,2013-06-01 05:10:00,
2013-06-01 01:15:00,70.4,66.7,29.80,SSE,149,5.0,9.0,88,0.00,,---,0.00,VWS V14.00,2013-06-01 05:15:00,
2013-06-01 01:20:00,70.3,66.6,29.81,SSE,147,2.0,9.0,88,0.00,,---,0.00,VWS V14.00,2013-06-01 05:20:00,
2013-06-01 01:25:00,70.2,66.5,29.80,SSE,150,1.0,9.0,88,0.00,,---,0.00,VWS V14.00,2013-06-01 05:25:00,
2013-06-01 01:30:00,70.1,66.4,29.80,SSE,153,4.0,6.0,88,0.00,,---,0.00,VWS V14.00,2013-06-01 05:30:00,
2013-06-01 01:35:00,70.1,66.4,29.79,SSE,153,2.0,6.0,88,0.00,,---,0.00,VWS V14.00,2013-06-01 05:35:00,
2013-06-01 01:40:00,70.0,66.3,29.79,SSE,150,4.0,7.0,88,0.00,,---,0.00,VWS V14.00,2013-06-01 05:40:00,
2013-06-01 01:45:00,70.0,66.3,29.78,SSE,154,5.0,8.0,88,0.00,,---,0.00,VWS V14.00,2013-06-01 05:45:00,
2013-06-01 01:50:00,69.9,66.2,29.78,SSE,151,5.0,8.0,88,0.00,,---,0.00,VWS V14.00,2013-06-01 05:50:00,
2013-06-01 01:55:00,69.9,66.5,29.78,SSE,152,5.0,8.0,89,0.00,,---,0.00,VWS V14.00,2013-06-01 05:55:00,
2013-06-01 02:00:00,69.8,66.4,29.77,SSE,150,5.0,7.0,89,0.00,,---,0.00,VWS V14.00,2013-06-01 06:00:00,
2013-06-01 02:05:00,69.7,66.3,29.77,SSE,157,2.0,7.0,89,0.00,,---,0.00,VWS V14.00,2013-06-01 06:05:00,
2013-06-01 02:10:00,69.7,66.3,29.77,SSE,157,4.0,7.0,89,0.00,,---,0.00,VWS V14.00,2013-06-01 06:10:00,
2013-06-01 02:15:00,69.7,66.3,29.77,SSE,147,0.0,8.0,89,0.00,,---,0.00,VWS V14.00,2013-06-01 06:15:00,
2013-06-01 02:20:00,69.7,66.3,29.78,SE,144,2.0,8.0,89,0.00,,---,0.00,VWS V14.00,2013-06-01 06:20:00,
2013-06-01 02:25:00,69.7,66.3,29.78,SE,146,5.0,8.0,89,0.00,,---,0.00,VWS V14.00,2013-06-01 06:25:00,
2013-06-01 02:30:00,69.7,66.3,29.78,SSE,151,0.0,5.0,89,0.00,,---,0.00,VWS V14.00,2013-06-01 06:30:00,
2013-06-01 02:35:00,69.6,66.2,29.77,SSE,151,2.0,5.0,89,0.00,,---,0.00,VWS V14.00,2013-06-01 06:35:00,
2013-06-01 02:40:00,69.5,66.1,29.78,SSE,157,0.0,5.0,89,0.00,,---,0.00,VWS V14.00,2013-06-01 06:40:00,
2013-06-01 02:45:00,69.5,66.1,29.78,SSE,157,1.0,5.0,89,0.00,,---,0.00,VWS V14.00,2013-06-01 06:45:00,
2013-06-01 02:50:00,69.3,66.2,29.78,SSE,157,0.0,5.0,90,0.00,,---,0.00,VWS V14.00,2013-06-01 06:50:00,
2013-06-01 02:55:00,69.3,66.2,29.78,SSE,157,1.0,5.0,90,0.00,,---,0.00,VWS V14.00,2013-06-01 06:55:00,
2013-06-01 03:00:00,69.2,66.2,29.78,SSE,157,0.0,5.0,90,0.00,,---,0.00,VWS V14.00,2013-06-01 07:00:00,
2013-06-01 03:05:00,69.1,66.1,29.77,SSE,157,1.0,5.0,90,0.00,,---,0.00,VWS V14.00,2013-06-01 07:05:00,
2013-06-01 03:10:00,69.1,66.1,29.77,SSE,157,0.0,5.0,90,0.00,,---,0.00,VWS V14.00,2013-06-01 07:10:00,
2013-06-01 03:15:00,69.0,65.9,29.77,SE,138,1.0,6.0,90,0.00,,---,0.00,VWS V14.00,2013-06-01 07:15:00,
2013-06-01 03:20:00,69.0,65.9,29.77,SE,140,2.0,7.0,90,0.00,,---,0.00,VWS V14.00,2013-06-01 07:20:00,
2013-06-01 03:25:00,69.0,65.9,29.76,SE,140,2.0,7.0,90,0.00,,---,0.00,VWS V14.00,2013-06-01 07:25:00,
2013-06-01 03:30:00,68.9,65.8,29.75,SE,140,2.0,4.0,90,0.00,,---,0.00,VWS V14.00,2013-06-01 07:30:00,
2013-06-01 03:35:00,68.9,65.8,29.75,SE,140,0.0,5.0,90,0.00,,---,0.00,VWS V14.00,2013-06-01 07:35:00,
2013-06-01 03:40:00,69.0,65.9,29.75,SE,142,2.0,6.0,90,0.00,,---,0.00,VWS V14.00,2013-06-01 07:40:00,
2013-06-01 03:45:00,69.0,65.9,29.75,SE,142,5.0,6.0,90,0.00,,---,0.00,VWS V14.00,2013-06-01 07:45:00,
2013-06-01 03:50:00,68.9,65.8,29.75,SSE,156,7.0,7.0,90,0.00,,---,0.00,VWS V14.00,2013-06-01 07:50:00,
2013-06-01 03:55:00,68.9,65.8,29.76,SSE,157,5.0,8.0,90,0.00,,---,0.00,VWS V14.00,2013-06-01 07:55:00,
2013-06-01 04:00:00,69.0,65.9,29.76,SE,144,6.0,9.0,90,0.00,,---,0.00,VWS V14.00,2013-06-01 08:00:00,
2013-06-01 04:05:00,69.2,66.2,29.76,SSE,151,1.0,9.0,90,0.00,,---,0.00,VWS V14.00,2013-06-01 08:05:00,
2013-06-01 04:10:00,69.3,66.2,29.76,South,178,4.0,10.0,90,0.00,,---,0.00,VWS V14.00,2013-06-01 08:10:00,
2013-06-01 04:15:00,69.3,66.2,29.77,SSE,150,7.0,10.0,90,0.00,,---,0.00,VWS V14.00,2013-06-01 08:15:00,
2013-06-01 04:20:00,69.4,66.0,29.77,SSE,163,1.0,10.0,89,0.00,,---,0.00,VWS V14.00,2013-06-01 08:20:00,
2013-06-01 04:25:00,69.4,66.0,29.76,South,178,1.0,10.0,89,0.00,,---,0.00,VWS V14.00,2013-06-01 08:25:00,
2013-06-01 04:30:00,69.5,66.1,29.76,South,184,0.0,10.0,89,0.00,,---,0.00,VWS V14.00,2013-06-01 08:30:00,
2013-06-01 04:31:00,69.5,66.1,29.76,SSW,192,2.0,6.0,89,0.00,,---,0.00,VWS V14.00,2013-06-01 08:31:00,
2013-06-01 04:36:00,69.5,66.1,29.76,South,184,2.0,7.0,89,0.00,,---,0.00,VWS V14.00,2013-06-01 08:36:00,
2013-06-01 04:41:00,69.5,66.1,29.76,South,169,2.0,8.0,89,0.00,,---,0.00,VWS V14.00,2013-06-01 08:41:00,
2013-06-01 04:46:00,69.5,65.8,29.76,SSE,155,4.0,9.0,88,0.00,,---,0.00,VWS V14.00,2013-06-01 08:46:00,
2013-06-01 04:51:00,69.6,65.9,29.76,SW,220,4.0,9.0,88,0.00,,---,0.00,VWS V14.00,2013-06-01 08:51:00,
2013-06-01 04:56:00,69.7,65.3,29.76,South,179,5.0,9.0,86,0.00,,---,0.00,VWS V14.00,2013-06-01 08:56:00,
2013-06-01 05:00:00,69.8,65.4,29.76,SSW,194,1.0,9.0,86,0.00,,---,0.00,VWS V14.00,2013-06-01 09:00:00,
2013-06-01 05:01:00,69.9,65.2,29.75,SSE,161,4.0,7.0,85,0.00,,---,0.00,VWS V14.00,2013-06-01 09:01:00,
2013-06-01 05:06:00,70.0,64.9,29.75,SSW,206,4.0,7.0,84,0.00,,---,0.00,VWS V14.00,2013-06-01 09:06:00,
2013-06-01 05:11:00,70.1,64.7,29.76,SSW,194,4.0,8.0,83,0.00,,---,0.00,VWS V14.00,2013-06-01 09:11:00,
2013-06-01 05:16:00,70.0,64.6,29.76,South,174,4.0,11.0,83,0.00,,---,0.00,VWS V14.00,2013-06-01 09:16:00,
2013-06-01 05:21:00,69.7,64.7,29.76,SSW,200,10.0,11.0,84,0.01,,---,0.01,VWS V14.00,2013-06-01 09:21:00,
2013-06-01 05:26:00,68.6,64.2,29.76,SSW,209,15.0,22.0,86,0.02,,---,0.02,VWS V14.00,2013-06-01 09:26:00,
2013-06-01 05:30:00,68.4,64.1,29.76,SSW,194,15.0,22.0,86,0.02,,---,0.02,VWS V14.00,2013-06-01 09:30:00,
2013-06-01 05:31:00,68.1,64.4,29.75,South,182,8.0,17.0,88,0.02,,---,0.02,VWS V14.00,2013-06-01 09:31:00,
2013-06-01 05:36:00,67.7,64.3,29.74,South,173,10.0,19.0,89,0.02,,---,0.02,VWS V14.00,2013-06-01 09:36:00,
2013-06-01 05:41:00,67.6,64.2,29.73,SSE,168,16.0,22.0,89,0.03,,---,0.03,VWS V14.00,2013-06-01 09:41:00,
2013-06-01 05:46:00,67.5,64.5,29.72,SSE,148,9.0,22.0,90,0.03,,---,0.03,VWS V14.00,2013-06-01 09:46:00,
2013-06-01 05:51:00,67.5,64.5,29.73,SE,141,9.0,22.0,90,0.03,,---,0.03,VWS V14.00,2013-06-01 09:51:00,
2013-06-01 05:56:00,67.3,64.3,29.73,SSE,153,9.0,22.0,90,0.03,,---,0.03,VWS V14.00,2013-06-01 09:56:00,
2013-06-01 06:00:00,67.3,64.3,29.72,SSE,164,11.0,22.0,90,0.03,,---,0.03,VWS V14.00,2013-06-01 10:00:00,
2013-06-01 06:01:00,67.1,64.1,29.72,SSE,149,10.0,19.0,90,0.03,,---,0.03,VWS V14.00,2013-06-01 10:01:00,
2013-06-01 06:06:00,67.0,64.0,29.71,SSW,211,8.0,22.0,90,0.03,,---,0.03,VWS V14.00,2013-06-01 10:06:00,
2013-06-01 06:11:00,66.9,64.2,29.72,SSW,208,6.0,22.0,91,0.03,,---,0.03,VWS V14.00,2013-06-01 10:11:00,
2013-06-01 06:16:00,66.8,64.1,29.72,SSE,161,14.0,22.0,91,0.03,,---,0.03,VWS V14.00,2013-06-01 10:16:00,
2013-06-01 06:21:00,66.8,63.8,29.71,SSE,158,9.0,22.0,90,0.03,,---,0.03,VWS V14.00,2013-06-01 10:21:00,
2013-06-01 06:26:00,66.7,63.7,29.72,SE,145,11.0,22.0,90,0.03,,---,0.03,VWS V14.00,2013-06-01 10:26:00,
2013-06-01 06:30:00,66.7,63.7,29.71,SE,136,13.0,22.0,90,0.03,,---,0.03,VWS V14.00,2013-06-01 10:30:00,
2013-06-01 06:31:00,66.7,63.7,29.72,SSW,197,5.0,13.0,90,0.01,,---,0.03,VWS V14.00,2013-06-01 10:31:00,
2013-06-01 06:36:00,66.7,64.0,29.74,WNW,294,4.0,13.0,91,0.01,,---,0.03,VWS V14.00,2013-06-01 10:36:00,
2013-06-01 06:41:00,66.6,63.9,29.74,NW,318,9.0,13.0,91,0.01,,---,0.03,VWS V14.00,2013-06-01 10:41:00,
2013-06-01 06:46:00,66.8,63.8,29.73,SSW,199,4.0,13.0,90,0.01,,---,0.03,VWS V14.00,2013-06-01 10:46:00,
2013-06-01 06:51:00,66.9,63.9,29.74,WSW,255,8.0,13.0,90,0.01,,---,0.03,VWS V14.00,2013-06-01 10:51:00,
2013-06-01 06:56:00,67.0,64.0,29.74,SW,232,5.0,13.0,90,0.01,,---,0.03,VWS V14.00,2013-06-01 10:56:00,
2013-06-01 07:00:00,67.0,64.0,29.73,SW,221,3.0,13.0,90,0.01,,---,0.03,VWS V14.00,2013-06-01 11:00:00,
2013-06-01 07:01:00,67.0,63.7,29.73,SW,223,5.0,7.0,89,0.00,,---,0.03,VWS V14.00,2013-06-01 11:01:00,
2013-06-01 07:06:00,67.1,63.8,29.74,WSW,254,3.0,7.0,89,0.00,,---,0.03,VWS V14.00,2013-06-01 11:06:00,
2013-06-01 07:11:00,67.2,63.8,29.74,WSW,251,4.0,8.0,89,0.00,,---,0.03,VWS V14.00,2013-06-01 11:11:00,
2013-06-01 07:16:00,67.3,64.0,29.74,SW,216,6.0,14.0,89,0.00,,---,0.03,VWS V14.00,2013-06-01 11:16:00,
2013-06-01 07:21:00,67.3,64.0,29.74,SW,217,6.0,14.0,89,0.00,,---,0.03,VWS V14.00,2013-06-01 11:21:00,
2013-06-01 07:26:00,67.4,64.1,29.74,SSW,208,4.0,14.0,89,0.00,,---,0.03,VWS V14.00,2013-06-01 11:26:00,
2013-06-01 07:30:00,67.4,64.1,29.74,SW,225,5.0,14.0,89,0.00,,---,0.03,VWS V14.00,2013-06-01 11:30:00,
2013-06-01 07:31:00,67.6,64.2,29.74,SW,222,4.0,8.0,89,0.00,,---,0.03,VWS V14.00,2013-06-01 11:31:00,
2013-06-01 07:36:00,67.8,64.1,29.74,SW,219,3.0,8.0,88,0.00,,---,0.03,VWS V14.00,2013-06-01 11:36:00,
2013-06-01 07:41:00,67.9,64.2,29.74,SW,220,7.0,10.0,88,0.00,,---,0.03,VWS V14.00,2013-06-01 11:41:00,
2013-06-01 07:46:00,68.0,64.3,29.74,South,175,4.0,10.0,88,0.00,,---,0.03,VWS V14.00,2013-06-01 11:46:00,
2013-06-01 07:51:00,68.0,64.3,29.74,SSW,196,2.0,10.0,88,0.00,,---,0.03,VWS V14.00,2013-06-01 11:51:00,
2013-06-01 07:56:00,68.1,64.4,29.73,South,171,0.0,10.0,88,0.00,,---,0.03,VWS V14.00,2013-06-01 11:56:00,
2013-06-01 08:00:00,68.1,64.4,29.73,South,188,1.0,10.0,88,0.00,,---,0.03,VWS V14.00,2013-06-01 12:00:00,
2013-06-01 08:01:00,68.1,64.4,29.73,SE,143,2.0,8.0,88,0.00,,---,0.03,VWS V14.00,2013-06-01 12:01:00,
2013-06-01 08:06:00,68.2,64.5,29.73,SE,133,6.0,10.0,88,0.00,,---,0.03,VWS V14.00,2013-06-01 12:06:00,
2013-06-01 08:11:00,68.2,64.5,29.73,South,171,5.0,10.0,88,0.00,,---,0.03,VWS V14.00,2013-06-01 12:11:00,
2013-06-01 08:16:00,68.1,64.4,29.73,SSW,204,10.0,10.0,88,0.00,,---,0.03,VWS V14.00,2013-06-01 12:16:00,
2013-06-01 08:21:00,68.0,64.3,29.74,SW,221,6.0,14.0,88,0.00,,---,0.03,VWS V14.00,2013-06-01 12:21:00,
2013-06-01 08:26:00,68.0,64.3,29.74,SSE,153,5.0,14.0,88,0.00,,---,0.03,VWS V14.00,2013-06-01 12:26:00,
2013-06-01 08:30:00,68.0,64.3,29.74,SSW,202,8.0,14.0,88,0.00,,---,0.03,VWS V14.00,2013-06-01 12:30:00,
2013-06-01 08:31:00,68.0,64.3,29.74,SSW,198,6.0,9.0,88,0.00,,---,0.03,VWS V14.00,2013-06-01 12:31:00,
2013-06-01 08:36:00,68.0,64.3,29.74,SSW,212,4.0,9.0,88,0.00,,---,0.03,VWS V14.00,2013-06-01 12:36:00,
2013-06-01 08:41:00,68.0,64.6,29.74,North,360,6.0,9.0,89,0.00,,---,0.03,VWS V14.00,2013-06-01 12:41:00,
2013-06-01 08:46:00,68.0,64.6,29.74,SW,220,4.0,10.0,89,0.00,,---,0.03,VWS V14.00,2013-06-01 12:46:00,
2013-06-01 08:51:00,68.1,64.7,29.73,SW,229,1.0,10.0,89,0.00,,---,0.03,VWS V14.00,2013-06-01 12:51:00,
2013-06-01 08:56:00,68.2,64.8,29.74,SW,219,2.0,10.0,89,0.00,,---,0.03,VWS V14.00,2013-06-01 12:56:00,
2013-06-01 09:00:00,68.2,64.8,29.74,SW,219,4.0,10.0,89,0.00,,---,0.03,VWS V14.00,2013-06-01 13:00:00,
2013-06-01 09:01:00,68.2,64.8,29.75,WSW,257,2.0,8.0,89,0.00,,---,0.03,VWS V14.00,2013-06-01 13:01:00,
2013-06-01 09:06:00,68.1,64.7,29.76,WSW,254,5.0,10.0,89,0.00,,---,0.03,VWS V14.00,2013-06-01 13:06:00,
2013-06-01 09:11:00,68.3,64.6,29.75,SSW,212,4.0,10.0,88,0.00,,---,0.03,VWS V14.00,2013-06-01 13:11:00,
2013-06-01 09:16:00,68.5,64.8,29.76,SSW,202,4.0,17.0,88,0.00,,---,0.03,VWS V14.00,2013-06-01 13:16:00,
2013-06-01 09:21:00,68.6,64.6,29.75,SSW,207,5.0,17.0,87,0.00,,---,0.03,VWS V14.00,2013-06-01 13:21:00,
2013-06-01 09:26:00,68.8,64.8,29.75,SW,221,4.0,17.0,87,0.00,,---,0.03,VWS V14.00,2013-06-01 13:26:00,
2013-06-01 09:30:00,68.8,64.8,29.75,SW,217,4.0,17.0,87,0.00,,---,0.03,VWS V14.00,2013-06-01 13:30:00,
2013-06-01 09:31:00,69.0,64.6,29.75,SW,220,9.0,12.0,86,0.00,,---,0.03,VWS V14.00,2013-06-01 13:31:00,
2013-06-01 09:36:00,69.2,65.2,29.75,SW,225,5.0,12.0,87,0.00,,---,0.03,VWS V14.00,2013-06-01 13:36:00,
2013-06-01 09:41:00,69.4,65.0,29.76,SSW,196,4.0,12.0,86,0.00,,---,0.03,VWS V14.00,2013-06-01 13:41:00,
2013-06-01 09:46:00,69.5,65.1,29.75,SSW,203,4.0,12.0,86,0.00,,---,0.03,VWS V14.00,2013-06-01 13:46:00,
2013-06-01 09:51:00,69.7,65.0,29.75,South,187,3.0,12.0,85,0.00,,---,0.03,VWS V14.00,2013-06-01 13:51:00,
2013-06-01 09:56:00,69.6,64.9,29.75,SSW,206,9.0,12.0,85,0.00,,---,0.03,VWS V14.00,2013-06-01 13:56:00,
2013-06-01 10:00:00,69.5,64.8,29.75,SSW,196,4.0,12.0,85,0.00,,---,0.03,VWS V14.00,2013-06-01 14:00:00,
2013-06-01 10:01:00,69.4,64.7,29.75,SSW,193,7.0,11.0,85,0.00,,---,0.03,VWS V14.00,2013-06-01 14:01:00,
2013-06-01 10:06:00,69.3,64.6,29.75,SW,218,5.0,11.0,85,0.00,,---,0.03,VWS V14.00,2013-06-01 14:06:00,
2013-06-01 10:11:00,69.3,64.9,29.75,SW,220,6.0,12.0,86,0.00,,---,0.03,VWS V14.00,2013-06-01 14:11:00,
2013-06-01 10:16:00,69.2,64.8,29.75,SW,224,7.0,12.0,86,0.00,,---,0.03,VWS V14.00,2013-06-01 14:16:00,
2013-06-01 10:21:00,69.0,64.6,29.74,SW,221,5.0,12.0,86,0.00,,---,0.03,VWS V14.00,2013-06-01 14:21:00,
2013-06-01 10:26:00,69.0,64.6,29.75,SSW,199,5.0,12.0,86,0.00,,---,0.03,VWS V14.00,2013-06-01 14:26:00,
2013-06-01 10:30:00,69.0,64.6,29.75,SSW,203,3.0,12.0,86,0.00,,---,0.03,VWS V14.00,2013-06-01 14:30:00,
2013-06-01 10:31:00,69.2,65.2,29.75,South,186,5.0,9.0,87,0.00,,---,0.03,VWS V14.00,2013-06-01 14:31:00,
2013-06-01 10:36:00,69.4,65.0,29.74,SW,219,4.0,10.0,86,0.00,,---,0.03,VWS V14.00,2013-06-01 14:36:00,
2013-06-01 10:41:00,70.1,65.4,29.74,SW,221,9.0,10.0,85,0.00,,---,0.03,VWS V14.00,2013-06-01 14:41:00,
2013-06-01 10:46:00,71.2,65.8,29.74,South,190,9.0,12.0,83,0.00,,---,0.03,VWS V14.00,2013-06-01 14:46:00,
2013-06-01 10:51:00,72.0,65.9,29.74,SSW,209,8.0,12.0,81,0.00,,---,0.03,VWS V14.00,2013-06-01 14:51:00,
2013-06-01 10:56:00,72.3,65.8,29.74,SSW,213,9.0,14.0,80,0.00,,---,0.03,VWS V14.00,2013-06-01 14:56:00,
2013-06-01 11:00:00,72.3,65.8,29.74,SW,215,8.0,14.0,80,0.00,,---,0.03,VWS V14.00,2013-06-01 15:00:00,
2013-06-01 11:02:00,72.9,66.0,29.74,SW,224,11.0,14.0,79,0.00,,---,0.03,VWS V14.00,2013-06-01 15:02:00,
2013-06-01 11:07:00,73.1,65.8,29.75,SSW,203,13.0,19.0,78,0.00,,---,0.03,VWS V14.00,2013-06-01 15:07:00,
2013-06-01 11:12:00,73.4,65.4,29.74,SW,219,7.0,19.0,76,0.00,,---,0.03,VWS V14.00,2013-06-01 15:12:00,
2013-06-01 11:17:00,73.5,65.1,29.75,SW,229,12.0,19.0,75,0.00,,---,0.03,VWS V14.00,2013-06-01 15:17:00,
2013-06-01 11:22:00,73.8,65.4,29.75,SW,234,13.0,19.0,75,0.00,,---,0.03,VWS V14.00,2013-06-01 15:22:00,
2013-06-01 11:27:00,74.1,65.3,29.75,SW,223,12.0,19.0,74,0.00,,---,0.03,VWS V14.00,2013-06-01 15:27:00,
2013-06-01 11:30:00,74.1,65.3,29.75,South,188,9.0,19.0,74,0.00,,---,0.03,VWS V14.00,2013-06-01 15:30:00,
2013-06-01 11:32:00,74.6,65.8,29.75,South,173,10.0,15.0,74,0.00,,---,0.03,VWS V14.00,2013-06-01 15:32:00,
2013-06-01 11:37:00,74.8,65.6,29.75,SW,235,12.0,21.0,73,0.00,,---,0.03,VWS V14.00,2013-06-01 15:37:00,
2013-06-01 11:42:00,75.1,66.2,29.76,SW,222,13.0,21.0,74,0.00,,---,0.03,VWS V14.00,2013-06-01 15:42:00,
2013-06-01 11:47:00,75.1,65.5,29.76,SW,218,17.0,21.0,72,0.00,,---,0.03,VWS V14.00,2013-06-01 15:47:00,
2013-06-01 11:52:00,75.3,65.7,29.76,WSW,256,7.0,21.0,72,0.00,,---,0.03,VWS V14.00,2013-06-01 15:52:00,
2013-06-01 11:57:00,75.5,65.4,29.76,WSW,252,7.0,21.0,71,0.00,,---,0.03,VWS V14.00,2013-06-01 15:57:00,
2013-06-01 12:00:00,75.5,65.4,29.76,SSW,207,12.0,21.0,71,0.00,,---,0.03,VWS V14.00,2013-06-01 16:00:00,
2013-06-01 12:02:00,75.2,65.2,29.76,SSW,211,9.0,19.0,71,0.00,,---,0.03,VWS V14.00,2013-06-01 16:02:00,
2013-06-01 12:07:00,75.2,65.6,29.76,WSW,238,6.0,19.0,72,0.00,,---,0.03,VWS V14.00,2013-06-01 16:07:00,
2013-06-01 12:12:00,75.8,65.7,29.76,WSW,255,9.0,19.0,71,0.00,,---,0.03,VWS V14.00,2013-06-01 16:12:00,
2013-06-01 12:17:00,75.7,65.6,29.76,SSW,202,8.0,19.0,71,0.00,,---,0.03,VWS V14.00,2013-06-01 16:17:00,
2013-06-01 12:22:00,75.9,65.4,29.75,SW,234,4.0,19.0,70,0.00,,---,0.03,VWS V14.00,2013-06-01 16:22:00,
2013-06-01 12:27:00,76.2,66.1,29.76,SW,236,8.0,19.0,71,0.00,,---,0.03,VWS V14.00,2013-06-01 16:27:00,
2013-06-01 12:30:00,76.3,66.2,29.76,SSW,208,8.0,19.0,71,0.00,,---,0.03,VWS V14.00,2013-06-01 16:30:00,
2013-06-01 12:32:00,76.2,65.3,29.76,SSW,212,4.0,11.0,69,0.00,,---,0.03,VWS V14.00,2013-06-01 16:32:00,
2013-06-01 12:37:00,76.0,65.1,29.76,SW,229,7.0,14.0,69,0.00,,---,0.03,VWS V14.00,2013-06-01 16:37:00,
2013-06-01 12:42:00,76.3,65.4,29.75,SSW,205,8.0,19.0,69,0.00,,---,0.03,VWS V14.00,2013-06-01 16:42:00,
2013-06-01 12:47:00,76.5,65.2,29.76,West,261,6.0,19.0,68,0.00,,---,0.03,VWS V14.00,2013-06-01 16:47:00,
2013-06-01 12:52:00,76.9,65.5,29.75,SW,226,5.0,19.0,68,0.00,,---,0.03,VWS V14.00,2013-06-01 16:52:00,
2013-06-01 12:57:00,76.9,64.2,29.75,SSW,213,10.0,19.0,65,0.00,,---,0.03,VWS V14.00,2013-06-01 16:57:00,
2013-06-01 13:00:00,76.9,64.7,29.75,WSW,246,10.0,19.0,66,0.00,,---,0.03,VWS V14.00,2013-06-01 17:00:00,
2013-06-01 13:02:00,77.0,65.2,29.75,SW,215,10.0,16.0,67,0.00,,---,0.03,VWS V14.00,2013-06-01 17:02:00,
2013-06-01 13:07:00,77.2,65.0,29.75,SW,217,8.0,16.0,66,0.00,,---,0.03,VWS V14.00,2013-06-01 17:07:00,
2013-06-01 13:12:00,77.2,64.5,29.75,SW,219,20.0,20.0,65,0.00,,---,0.03,VWS V14.00,2013-06-01 17:12:00,
2013-06-01 13:17:00,77.5,64.4,29.75,SW,224,15.0,21.0,64,0.00,,---,0.03,VWS V14.00,2013-06-01 17:17:00,
2013-06-01 13:22:00,77.7,64.6,29.75,WSW,240,13.0,21.0,64,0.00,,---,0.03,VWS V14.00,2013-06-01 17:22:00,
2013-06-01 13:27:00,78.1,65.4,29.75,SSW,211,7.0,21.0,65,0.00,,---,0.03,VWS V14.00,2013-06-01 17:27:00,
2013-06-01 13:30:00,78.1,65.4,29.75,SSW,212,7.0,21.0,65,0.00,,---,0.03,VWS V14.00,2013-06-01 17:30:00,
2013-06-01 13:32:00,78.6,65.9,29.75,SSW,211,4.0,15.0,65,0.00,,---,0.03,VWS V14.00,2013-06-01 17:32:00,
2013-06-01 13:37:00,78.6,64.5,29.74,SSW,200,5.0,17.0,62,0.00,,---,0.03,VWS V14.00,2013-06-01 17:37:00,
2013-06-01 13:42:00,78.8,64.7,29.74,SSW,213,9.0,17.0,62,0.00,,---,0.03,VWS V14.00,2013-06-01 17:42:00,
2013-06-01 13:47:00,78.7,63.7,29.74,WSW,248,3.0,20.0,60,0.00,,---,0.03,VWS V14.00,2013-06-01 17:47:00,
2013-06-01 13:52:00,78.9,63.8,29.74,SW,223,13.0,20.0,60,0.00,,---,0.03,VWS V14.00,2013-06-01 17:52:00,
2013-06-01 13:57:00,78.9,63.4,29.74,SW,220,9.0,20.0,59,0.00,,---,0.03,VWS V14.00,2013-06-01 17:57:00,
2013-06-01 14:00:00,78.9,63.4,29.74,SW,220,9.0,20.0,59,0.00,,---,0.03,VWS V14.00,2013-06-01 18:00:00,
2013-06-01 14:02:00,78.9,64.3,29.74,SW,224,9.0,16.0,61,0.00,,---,0.03,VWS V14.00,2013-06-01 18:02:00,
2013-06-01 14:07:00,79.1,64.5,29.74,WSW,238,15.0,16.0,61,0.00,,---,0.03,VWS V14.00,2013-06-01 18:07:00,
2013-06-01 14:12:00,79.3,63.7,29.74,WSW,241,9.0,16.0,59,0.00,,---,0.03,VWS V14.00,2013-06-01 18:12:00,
2013-06-01 14:17:00,78.9,64.3,29.74,SW,217,6.0,19.0,61,0.00,,---,0.03,VWS V14.00,2013-06-01 18:17:00,
2013-06-01 14:22:00,78.6,64.0,29.74,SW,223,11.0,21.0,61,0.00,,---,0.03,VWS V14.00,2013-06-01 18:22:00,
2013-06-01 14:27:00,78.6,64.5,29.74,SSW,213,10.0,13.0,62,0.00,,---,0.03,VWS V14.00,2013-06-01 18:27:00,
2013-06-01 14:30:00,78.6,64.5,29.74,WSW,254,11.0,21.0,62,0.00,,---,0.03,VWS V14.00,2013-06-01 18:30:00,
2013-06-01 14:32:00,78.6,64.0,29.73,SW,217,7.0,19.0,61,0.00,,---,0.03,VWS V14.00,2013-06-01 18:32:00,
2013-06-01 14:37:00,79.3,64.7,29.73,SW,234,8.0,19.0,61,0.00,,---,0.03,VWS V14.00,2013-06-01 18:37:00,
2013-06-01 14:42:00,79.6,65.0,29.73,SW,222,4.0,19.0,61,0.00,,---,0.03,VWS V14.00,2013-06-01 18:42:00,
2013-06-01 14:47:00,79.9,64.8,29.73,SSW,199,8.0,19.0,60,0.00,,---,0.03,VWS V14.00,2013-06-01 18:47:00,
2013-06-01 14:52:00,79.9,64.8,29.73,South,191,14.0,19.0,60,0.00,,---,0.03,VWS V14.00,2013-06-01 18:52:00,
2013-06-01 14:57:00,79.1,65.0,29.73,South,187,6.0,6.0,62,0.00,,---,0.03,VWS V14.00,2013-06-01 18:57:00,
2013-06-01 15:00:00,79.1,65.0,29.73,WSW,251,6.0,19.0,62,0.00,,---,0.03,VWS V14.00,2013-06-01 19:00:00,
2013-06-01 15:02:00,78.5,64.0,29.73,WSW,238,7.0,17.0,61,0.00,,---,0.03,VWS V14.00,2013-06-01 19:02:00,
2013-06-01 15:07:00,78.7,64.6,29.73,SSW,211,13.0,17.0,62,0.00,,---,0.03,VWS V14.00,2013-06-01 19:07:00,
2013-06-01 15:12:00,79.4,65.7,29.73,SSW,211,10.0,17.0,63,0.00,,---,0.03,VWS V14.00,2013-06-01 19:12:00,
2013-06-01 15:17:00,80.0,65.8,29.73,West,269,7.0,17.0,62,0.00,,---,0.03,VWS V14.00,2013-06-01 19:17:00,
2013-06-01 15:22:00,80.0,65.8,29.73,SSW,210,12.0,17.0,62,0.00,,---,0.03,VWS V14.00,2013-06-01 19:22:00,
2013-06-01 15:27:00,79.4,64.3,29.73,SW,227,5.0,11.0,60,0.00,,---,0.03,VWS V14.00,2013-06-01 19:27:00,
2013-06-01 15:30:00,79.4,64.3,29.73,SW,227,11.0,17.0,60,0.00,,---,0.03,VWS V14.00,2013-06-01 19:30:00,
2013-06-01 15:32:00,79.0,64.4,29.73,WSW,237,10.0,19.0,61,0.00,,---,0.03,VWS V14.00,2013-06-01 19:32:00,
2013-06-01 15:37:00,79.5,65.3,29.73,SW,226,11.0,19.0,62,0.00,,---,0.03,VWS V14.00,2013-06-01 19:37:00,
2013-06-01 15:42:00,79.4,64.3,29.73,SSW,209,9.0,19.0,60,0.00,,---,0.03,VWS V14.00,2013-06-01 19:42:00,
2013-06-01 15:47:00,79.8,65.2,29.73,SSW,210,14.0,19.0,61,0.00,,---,0.03,VWS V14.00,2013-06-01 19:47:00,
2013-06-01 15:52:00,79.5,65.3,29.73,SW,225,9.0,19.0,62,0.00,,---,0.03,VWS V14.00,2013-06-01 19:52:00,
2013-06-01 15:57:00,79.9,66.2,29.73,SSW,202,5.0,5.0,63,0.00,,---,0.03,VWS V14.00,2013-06-01 19:57:00,
2013-06-01 16:00:00,79.9,66.2,29.73,SSW,213,7.0,19.0,63,0.00,,---,0.03,VWS V14.00,2013-06-01 20:00:00,
2013-06-01 16:02:00,79.6,65.0,29.73,SW,230,7.0,11.0,61,0.00,,---,0.03,VWS V14.00,2013-06-01 20:02:00,
2013-06-01 16:07:00,79.3,65.2,29.73,SW,219,7.0,13.0,62,0.00,,---,0.03,VWS V14.00,2013-06-01 20:07:00,
2013-06-01 16:12:00,79.6,65.0,29.73,SSW,213,9.0,17.0,61,0.00,,---,0.03,VWS V14.00,2013-06-01 20:12:00,
2013-06-01 16:17:00,79.4,65.3,29.73,SW,223,6.0,17.0,62,0.00,,---,0.03,VWS V14.00,2013-06-01 20:17:00,
2013-06-01 16:22:00,78.9,65.2,29.73,SW,218,7.0,17.0,63,0.00,,---,0.03,VWS V14.00,2013-06-01 20:22:00,
2013-06-01 16:27:00,78.5,64.9,29.73,SSW,211,6.0,7.0,63,0.00,,---,0.03,VWS V14.00,2013-06-01 20:27:00,
2013-06-01 16:30:00,78.5,64.9,29.73,SSW,198,6.0,17.0,63,0.00,,---,0.03,VWS V14.00,2013-06-01 20:30:00,
2013-06-01 16:32:00,78.2,65.0,29.74,SW,214,15.0,17.0,64,0.00,,---,0.03,VWS V14.00,2013-06-01 20:32:00,
2013-06-01 16:37:00,78.0,65.3,29.73,SSW,209,12.0,17.0,65,0.00,,---,0.03,VWS V14.00,2013-06-01 20:37:00,
2013-06-01 16:42:00,77.9,64.8,29.73,South,182,8.0,17.0,64,0.00,,---,0.03,VWS V14.00,2013-06-01 20:42:00,
2013-06-01 16:47:00,77.6,64.5,29.73,SW,218,12.0,17.0,64,0.00,,---,0.03,VWS V14.00,2013-06-01 20:47:00,
2013-06-01 16:52:00,77.4,64.3,29.73,SW,217,7.0,17.0,64,0.00,,---,0.03,VWS V14.00,2013-06-01 20:52:00,
2013-06-01 16:57:00,77.4,64.7,29.73,SW,216,6.0,7.0,65,0.00,,---,0.03,VWS V14.00,2013-06-01 20:57:00,
2013-06-01 17:00:00,77.4,64.7,29.73,SW,233,9.0,17.0,65,0.00,,---,0.03,VWS V14.00,2013-06-01 21:00:00,
2013-06-01 17:02:00,77.2,64.1,29.73,SSW,197,5.0,12.0,64,0.00,,---,0.03,VWS V14.00,2013-06-01 21:02:00,
2013-06-01 17:07:00,77.1,64.4,29.73,SSW,201,3.0,14.0,65,0.00,,---,0.03,VWS V14.00,2013-06-01 21:07:00,
2013-06-01 17:12:00,77.0,64.3,29.73,SSW,202,6.0,14.0,65,0.00,,---,0.03,VWS V14.00,2013-06-01 21:12:00,
2013-06-01 17:18:00,76.8,64.2,29.73,SSW,202,4.0,15.0,65,0.00,,---,0.03,VWS V14.00,2013-06-01 21:18:00,
2013-06-01 17:23:00,76.6,64.4,29.73,SW,222,9.0,15.0,66,0.00,,---,0.03,VWS V14.00,2013-06-01 21:23:00,
2013-06-01 17:28:00,76.5,64.3,29.74,SSW,210,7.0,11.0,66,0.00,,---,0.03,VWS V14.00,2013-06-01 21:28:00,
2013-06-01 17:30:00,76.5,64.3,29.74,SW,219,7.0,16.0,66,0.00,,---,0.03,VWS V14.00,2013-06-01 21:30:00,
2013-06-01 17:33:00,76.5,64.7,29.73,SSW,205,13.0,13.0,67,0.00,,---,0.03,VWS V14.00,2013-06-01 21:33:00,
2013-06-01 17:38:00,76.5,64.7,29.73,SW,218,7.0,13.0,67,0.00,,---,0.03,VWS V14.00,2013-06-01 21:38:00,
2013-06-01 17:43:00,76.5,64.3,29.73,South,191,7.0,14.0,66,0.00,,---,0.03,VWS V14.00,2013-06-01 21:43:00,
2013-06-01 17:48:00,76.4,64.6,29.73,SW,234,8.0,14.0,67,0.00,,---,0.03,VWS V14.00,2013-06-01 21:48:00,
2013-06-01 17:53:00,76.3,64.6,29.73,SW,216,5.0,14.0,67,0.00,,---,0.03,VWS V14.00,2013-06-01 21:53:00,
2013-06-01 17:58:00,76.2,64.4,29.73,SSW,205,2.0,5.0,67,0.00,,---,0.03,VWS V14.00,2013-06-01 21:58:00,
2013-06-01 18:00:00,76.2,64.4,29.73,SSW,192,4.0,14.0,67,0.00,,---,0.03,VWS V14.00,2013-06-01 22:00:00,
2013-06-01 18:03:00,76.2,64.4,29.73,SSW,206,7.0,10.0,67,0.00,,---,0.03,VWS V14.00,2013-06-01 22:03:00,
2013-06-01 18:08:00,76.1,64.4,29.73,SSW,205,5.0,14.0,67,0.00,,---,0.03,VWS V14.00,2013-06-01 22:08:00,
2013-06-01 18:13:00,76.0,63.8,29.73,SSW,200,11.0,16.0,66,0.00,,---,0.03,VWS V14.00,2013-06-01 22:13:00,
2013-06-01 18:18:00,75.9,64.2,29.73,SW,217,7.0,16.0,67,0.00,,---,0.03,VWS V14.00,2013-06-01 22:18:00,
2013-06-01 18:23:00,75.7,64.4,29.73,SSW,203,5.0,16.0,68,0.00,,---,0.03,VWS V14.00,2013-06-01 22:23:00,
2013-06-01 18:28:00,75.6,64.7,29.73,SSW,196,5.0,8.0,69,0.00,,---,0.03,VWS V14.00,2013-06-01 22:28:00,
2013-06-01 18:30:00,75.6,64.7,29.73,SW,230,4.0,16.0,69,0.00,,---,0.03,VWS V14.00,2013-06-01 22:30:00,
2013-06-01 18:33:00,75.5,64.6,29.72,SW,221,6.0,12.0,69,0.00,,---,0.03,VWS V14.00,2013-06-01 22:33:00,
2013-06-01 18:38:00,75.5,64.6,29.72,SSW,200,7.0,12.0,69,0.00,,---,0.03,VWS V14.00,2013-06-01 22:38:00,
2013-06-01 18:43:00,75.4,64.5,29.72,SSW,196,6.0,14.0,69,0.00,,---,0.03,VWS V14.00,2013-06-01 22:43:00,
2013-06-01 18:48:00,75.3,64.4,29.72,SW,217,6.0,14.0,69,0.00,,---,0.03,VWS V14.00,2013-06-01 22:48:00,
2013-06-01 18:53:00,75.2,64.8,29.72,SSW,194,6.0,14.0,70,0.00,,---,0.03,VWS V14.00,2013-06-01 22:53:00,
2013-06-01 18:58:00,75.0,65.0,29.72,SW,234,5.0,9.0,71,0.00,,---,0.03,VWS V14.00,2013-06-01 22:58:00,
2013-06-01 19:00:00,75.0,65.0,29.72,SSW,192,3.0,14.0,71,0.00,,---,0.03,VWS V14.00,2013-06-01 23:00:00,
2013-06-01 19:03:00,74.9,65.3,29.72,SW,226,5.0,9.0,72,0.00,,---,0.03,VWS V14.00,2013-06-01 23:03:00,
2013-06-01 19:08:00,74.9,65.3,29.72,SW,218,6.0,9.0,72,0.00,,---,0.03,VWS V14.00,2013-06-01 23:08:00,
2013-06-01 19:13:00,74.8,65.2,29.72,SSW,212,5.0,9.0,72,0.00,,---,0.03,VWS V14.00,2013-06-01 23:13:00,
2013-06-01 19:18:00,74.7,65.1,29.72,SW,222,4.0,9.0,72,0.00,,---,0.03,VWS V14.00,2013-06-01 23:18:00,
2013-06-01 19:23:00,74.7,65.1,29.72,SW,217,3.0,9.0,72,0.00,,---,0.03,VWS V14.00,2013-06-01 23:23:00,
2013-06-01 19:28:00,74.6,65.4,29.72,SW,218,0.0,4.0,73,0.00,,---,0.03,VWS V14.00,2013-06-01 23:28:00,
2013-06-01 19:30:00,74.6,65.4,29.72,SW,218,3.0,9.0,73,0.00,,---,0.03,VWS V14.00,2013-06-01 23:30:00,
2013-06-01 19:33:00,74.6,65.4,29.72,SSW,207,2.0,6.0,73,0.00,,---,0.03,VWS V14.00,2013-06-01 23:33:00,
2013-06-01 19:38:00,74.4,65.6,29.72,SSW,207,0.0,6.0,74,0.00,,---,0.03,VWS V14.00,2013-06-01 23:38:00,
2013-06-01 19:43:00,74.3,65.9,29.72,SSW,207,2.0,6.0,75,0.00,,---,0.03,VWS V14.00,2013-06-01 23:43:00,
2013-06-01 19:48:00,74.2,65.8,29.72,South,181,3.0,7.0,75,0.00,,---,0.03,VWS V14.00,2013-06-01 23:48:00,
2013-06-01 19:53:00,74.1,65.3,29.72,SW,230,8.0,10.0,74,0.00,,---,0.03,VWS V14.00,2013-06-01 23:53:00,
2013-06-01 19:58:00,74.0,64.8,29.72,SSW,193,7.0,11.0,73,0.00,,---,0.03,VWS V14.00,2013-06-01 23:58:00,
2013-06-01 20:00:00,74.1,65.3,29.72,South,180,10.0,10.0,74,0.00,,---,0.03,VWS V14.00,2013-06-02 00:00:00,
2013-06-01 20:03:00,74.0,64.8,29.72,South,190,4.0,11.0,73,0.00,,---,0.03,VWS V14.00,2013-06-02 00:03:00,
2013-06-01 20:08:00,73.9,64.7,29.72,SSW,201,4.0,11.0,73,0.00,,---,0.03,VWS V14.00,2013-06-02 00:08:00,
2013-06-01 20:13:00,73.7,64.5,29.72,SSW,200,8.0,12.0,73,0.00,,---,0.03,VWS V14.00,2013-06-02 00:13:00,
2013-06-01 20:18:00,73.5,64.7,29.72,SW,221,6.0,12.0,74,0.00,,---,0.03,VWS V14.00,2013-06-02 00:18:00,
2013-06-01 20:23:00,73.3,64.5,29.71,SW,229,10.0,12.0,74,0.00,,---,0.03,VWS V14.00,2013-06-02 00:23:00,
2013-06-01 20:28:00,73.2,64.4,29.71,SSW,208,5.0,9.0,74,0.00,,---,0.03,VWS V14.00,2013-06-02 00:28:00,
2013-06-01 20:30:00,73.3,64.5,29.71,SSW,211,6.0,12.0,74,0.00,,---,0.03,VWS V14.00,2013-06-02 00:30:00,
2013-06-01 20:33:00,73.0,64.2,29.71,South,182,6.0,10.0,74,0.00,,---,0.03,VWS V14.00,2013-06-02 00:33:00,
2013-06-01 20:38:00,72.9,64.5,29.72,SW,223,5.0,10.0,75,0.00,,---,0.03,VWS V14.00,2013-06-02 00:38:00,
2013-06-01 20:43:00,72.8,64.4,29.72,SSW,196,5.0,10.0,75,0.00,,---,0.03,VWS V14.00,2013-06-02 00:43:00,
2013-06-01 20:48:00,72.6,64.6,29.71,SSW,210,3.0,10.0,76,0.00,,---,0.03,VWS V14.00,2013-06-02 00:48:00,
2013-06-01 20:53:00,72.4,64.8,29.71,SW,217,4.0,10.0,77,0.00,,---,0.03,VWS V14.00,2013-06-02 00:53:00,
2013-06-01 20:58:00,72.1,64.9,29.71,SW,221,5.0,6.0,78,0.00,,---,0.03,VWS V14.00,2013-06-02 00:58:00,
2013-06-01 21:00:00,72.2,64.6,29.71,SW,221,5.0,10.0,77,0.00,,---,0.03,VWS V14.00,2013-06-02 01:00:00,
2013-06-01 21:03:00,71.9,64.7,29.71,SW,218,6.0,7.0,78,0.00,,---,0.03,VWS V14.00,2013-06-02 01:03:00,
2013-06-01 21:08:00,71.8,64.6,29.71,SW,214,4.0,8.0,78,0.00,,---,0.03,VWS V14.00,2013-06-02 01:08:00,
2013-06-01 21:13:00,71.7,64.5,29.71,SSW,198,3.0,8.0,78,0.00,,---,0.03,VWS V14.00,2013-06-02 01:13:00,
2013-06-01 21:18:00,71.6,64.4,29.71,SSW,209,2.0,8.0,78,0.00,,---,0.03,VWS V14.00,2013-06-02 01:18:00,
2013-06-01 21:23:00,71.5,64.3,29.70,SSW,198,5.0,9.0,78,0.00,,---,0.03,VWS V14.00,2013-06-02 01:23:00,
2013-06-01 21:28:00,71.4,64.2,29.70,SW,217,4.0,6.0,78,0.00,,---,0.03,VWS V14.00,2013-06-02 01:28:00,
2013-06-01 21:30:00,71.4,64.2,29.70,SW,218,4.0,9.0,78,0.00,,---,0.03,VWS V14.00,2013-06-02 01:30:00,
2013-06-01 21:33:00,71.3,64.1,29.70,SW,223,4.0,9.0,78,0.00,,---,0.03,VWS V14.00,2013-06-02 01:33:00,
2013-06-01 21:38:00,71.3,64.1,29.70,SW,223,5.0,9.0,78,0.00,,---,0.03,VWS V14.00,2013-06-02 01:38:00,
2013-06-01 21:43:00,71.2,63.6,29.70,SW,229,7.0,10.0,77,0.00,,---,0.03,VWS V14.00,2013-06-02 01:43:00,
2013-06-01 21:48:00,71.1,63.9,29.70,SSW,204,5.0,10.0,78,0.00,,---,0.03,VWS V14.00,2013-06-02 01:48:00,
2013-06-01 21:53:00,70.9,64.1,29.70,SSW,209,1.0,10.0,79,0.00,,---,0.03,VWS V14.00,2013-06-02 01:53:00,
2013-06-01 21:58:00,70.7,63.9,29.70,South,182,2.0,7.0,79,0.00,,---,0.03,VWS V14.00,2013-06-02 01:58:00,
2013-06-01 22:00:00,70.7,63.9,29.70,SSW,199,5.0,10.0,79,0.00,,---,0.03,VWS V14.00,2013-06-02 02:00:00,
2013-06-01 22:03:00,70.5,64.0,29.70,SSW,195,4.0,8.0,80,0.00,,---,0.03,VWS V14.00,2013-06-02 02:03:00,
2013-06-01 22:08:00,70.4,63.9,29.70,SSW,202,4.0,8.0,80,0.00,,---,0.03,VWS V14.00,2013-06-02 02:08:00,
2013-06-01 22:13:00,70.3,63.8,29.70,SSW,200,3.0,8.0,80,0.00,,---,0.03,VWS V14.00,2013-06-02 02:13:00,
2013-06-01 22:18:00,70.3,63.8,29.70,SSW,205,1.0,8.0,80,0.00,,---,0.03,VWS V14.00,2013-06-02 02:18:00,
2013-06-01 22:23:00,70.2,63.8,29.70,SSW,196,1.0,8.0,80,0.00,,---,0.03,VWS V14.00,2013-06-02 02:23:00,
2013-06-01 22:28:00,70.1,63.7,29.70,South,189,5.0,5.0,80,0.00,,---,0.03,VWS V14.00,2013-06-02 02:28:00,
2013-06-01 22:30:00,70.1,63.7,29.70,South,186,5.0,8.0,80,0.00,,---,0.03,VWS V14.00,2013-06-02 02:30:00,
2013-06-01 22:33:00,69.9,63.5,29.70,South,190,4.0,6.0,80,0.00,,---,0.03,VWS V14.00,2013-06-02 02:33:00,
2013-06-01 22:38:00,69.8,63.4,29.69,South,190,3.0,7.0,80,0.00,,---,0.03,VWS V14.00,2013-06-02 02:38:00,
2013-06-01 22:43:00,69.7,63.3,29.69,SSW,210,3.0,7.0,80,0.00,,---,0.03,VWS V14.00,2013-06-02 02:43:00,
2013-06-01 22:48:00,69.6,63.2,29.68,SSW,202,5.0,7.0,80,0.00,,---,0.03,VWS V14.00,2013-06-02 02:48:00,
2013-06-01 22:53:00,69.5,63.1,29.68,SSW,198,3.0,7.0,80,0.00,,---,0.03,VWS V14.00,2013-06-02 02:53:00,
2013-06-01 22:58:00,69.4,63.0,29.68,SSW,209,2.0,6.0,80,0.00,,---,0.03,VWS V14.00,2013-06-02 02:58:00,
2013-06-01 23:00:00,69.4,63.0,29.68,SSW,203,5.0,7.0,80,0.00,,---,0.03,VWS V14.00,2013-06-02 03:00:00,
2013-06-01 23:03:00,69.3,62.9,29.68,South,191,4.0,6.0,80,0.00,,---,0.03,VWS V14.00,2013-06-02 03:03:00,
2013-06-01 23:08:00,69.1,63.0,29.67,South,191,0.0,6.0,81,0.00,,---,0.03,VWS V14.00,2013-06-02 03:08:00,
2013-06-01 23:13:00,68.9,62.8,29.68,SSW,192,0.0,6.0,81,0.00,,---,0.03,VWS V14.00,2013-06-02 03:13:00,
2013-06-01 23:18:00,68.7,62.6,29.68,SSW,192,0.0,6.0,81,0.00,,---,0.03,VWS V14.00,2013-06-02 03:18:00,
2013-06-01 23:23:00,68.5,62.8,29.67,South,191,1.0,6.0,82,0.00,,---,0.03,VWS V14.00,2013-06-02 03:23:00,
2013-06-01 23:28:00,68.4,62.7,29.67,South,191,0.0,4.0,82,0.00,,---,0.03,VWS V14.00,2013-06-02 03:28:00,
2013-06-01 23:30:00,68.4,62.7,29.67,South,191,3.0,6.0,82,0.00,,---,0.03,VWS V14.00,2013-06-02 03:30:00,
2013-06-01 23:34:00,68.2,62.5,29.67,South,191,0.0,4.0,82,0.00,,---,0.03,VWS V14.00,2013-06-02 03:34:00,
2013-06-01 23:39:00,68.2,62.8,29.67,SSE,166,4.0,6.0,83,0.00,,---,0.03,VWS V14.00,2013-06-02 03:39:00,
2013-06-01 23:44:00,68.1,62.8,29.67,SSE,162,1.0,6.0,83,0.00,,---,0.03,VWS V14.00,2013-06-02 03:44:00,
2013-06-01 23:49:00,68.0,62.7,29.67,SSE,162,0.0,6.0,83,0.00,,---,0.03,VWS V14.00,2013-06-02 03:49:00,
2013-06-01 23:54:00,67.9,62.5,29.67,SSE,158,0.0,6.0,83,0.00,,---,0.03,VWS V14.00,2013-06-02 03:54:00,
2013-06-01 23:59:00,67.8,62.8,29.67,SSE,157,5.0,5.0,84,0.00,,---,0.00,VWS V14.00,2013-06-02 03:59:00,